,,,PA_Meas_PMT16A,,PR_Meas_QMR101_102,,RH_Meas_QMH101,,SR_Meas_QMS101,,TA_Meas_QMH101,,GenWind,,GenWind,
date,time,status,PA,status,PR,status,RH,status,SR,status,TA,status,DirAvg,status,SpdAvg,
2010-02-11, 00:00:04,VALID,1002.88,VALID,0,VALID,84.0937,VALID,0,VALID,25.4383,VALID,56,VALID,2.01211,
2010-02-11, 00:01:04,VALID,1002.91,VALID,0,VALID,83.7503,VALID,0,VALID,25.4969,VALID,64,VALID,1.27734,
2010-02-11, 00:02:04,VALID,1002.93,VALID,0,VALID,83.6283,VALID,0,VALID,25.5359,VALID,58,VALID,1.28477,
2010-02-11, 00:03:04,VALID,1002.95,VALID,0,VALID,83.6512,VALID,0,VALID,25.5359,VALID,58,VALID,1.64102,
2010-02-11, 00:04:04,VALID,1002.9,VALID,0,VALID,83.7274,VALID,0,VALID,25.5359,VALID,65,VALID,1.21602,
2010-02-11, 00:05:04,VALID,1002.94,VALID,0,VALID,83.7885,VALID,0,VALID,25.5164,VALID,72,VALID,1.26211,
2010-02-11, 00:06:04,VALID,1002.93,VALID,0,VALID,83.7198,VALID,0,VALID,25.5164,VALID,53,VALID,1.47305,
2010-02-11, 00:07:04,VALID,1002.93,VALID,0,VALID,83.613,VALID,0,VALID,25.5359,VALID,60,VALID,1.03398,
2010-02-11, 00:08:04,VALID,1002.94,VALID,0,VALID,83.4909,VALID,0,VALID,25.575,VALID,86,VALID,1.70195,
2010-02-11, 00:09:04,VALID,1002.93,VALID,0,VALID,83.0255,VALID,0,VALID,25.6336,VALID,72,VALID,1.77656,
2010-02-11, 00:10:04,VALID,1002.95,VALID,0,VALID,82.8653,VALID,0,VALID,25.7116,VALID,71,VALID,1.61484,
2010-02-11, 00:11:04,VALID,1002.92,VALID,0,VALID,82.7585,VALID,0,VALID,25.7097,VALID,73,VALID,1.4543,
2010-02-11, 00:12:04,VALID,1002.9,VALID,0,VALID,82.9111,VALID,0,VALID,25.7312,VALID,64,VALID,0.762891,
2010-02-11, 00:13:04,VALID,1002.89,VALID,0,VALID,82.8195,VALID,0,VALID,25.7312,VALID,64,VALID,1.67539,
2010-02-11, 00:14:04,VALID,1002.91,VALID,0,VALID,82.522,VALID,0,VALID,25.7683,VALID,80,VALID,1.68359,
2010-02-11, 00:15:04,VALID,1002.88,VALID,0,VALID,82.6212,VALID,0.112286,VALID,25.8073,VALID,86,VALID,1.30508,
2010-02-11, 00:16:04,VALID,1002.89,VALID,0,VALID,82.11,VALID,0,VALID,25.7878,VALID,74,VALID,2.3457,
2010-02-11, 00:17:04,VALID,1002.88,VALID,0,VALID,82.171,VALID,0,VALID,25.8268,VALID,75,VALID,2.61055,
2010-02-11, 00:18:04,VALID,1002.87,VALID,0,VALID,82.171,VALID,0.112286,VALID,25.8464,VALID,71,VALID,1.81094,
2010-02-11, 00:19:04,VALID,1002.87,VALID,0,VALID,82.377,VALID,0,VALID,25.8679,VALID,73,VALID,1.15195,
2010-02-11, 00:20:04,VALID,1002.88,VALID,0,VALID,82.3694,VALID,0,VALID,25.8268,VALID,70,VALID,1.32266,
2010-02-11, 00:21:04,VALID,1002.87,VALID,0,VALID,82.522,VALID,0,VALID,25.8464,VALID,76,VALID,1.64336,
2010-02-11, 00:22:04,VALID,1002.88,VALID,0,VALID,82.728,VALID,0,VALID,25.8073,VALID,72,VALID,1.20039,
2010-02-11, 00:23:04,VALID,1002.87,VALID,0,VALID,82.7814,VALID,0,VALID,25.7878,VALID,57,VALID,1.48164,
2010-02-11, 00:24:04,VALID,1002.83,VALID,0,VALID,82.5067,VALID,0,VALID,25.7683,VALID,70,VALID,1.3957,
2010-02-11, 00:25:04,VALID,1002.84,VALID,0,VALID,82.3846,VALID,0,VALID,25.7878,VALID,63,VALID,2.0793,
2010-02-11, 00:26:04,VALID,1002.82,VALID,0,VALID,82.2092,VALID,0,VALID,25.8073,VALID,63,VALID,1.54336,
2010-02-11, 00:27:04,VALID,1002.79,VALID,0,VALID,82.2549,VALID,0.112286,VALID,25.8464,VALID,67,VALID,1.92852,
2010-02-11, 00:28:04,VALID,1002.81,VALID,0,VALID,82.0947,VALID,0,VALID,25.8464,VALID,60,VALID,1.95234,
2010-02-11, 00:29:04,VALID,1002.77,VALID,0,VALID,82.0947,VALID,0,VALID,25.8659,VALID,56,VALID,1.62852,
2010-02-11, 00:30:04,VALID,1002.74,VALID,0,VALID,81.5835,VALID,0,VALID,25.8659,VALID,57,VALID,2.54805,
2010-02-11, 00:31:04,VALID,1002.75,VALID,0,VALID,81.8963,VALID,0,VALID,25.9049,VALID,71,VALID,1.45977,
2010-02-11, 00:32:04,VALID,1002.74,VALID,0,VALID,81.7056,VALID,0,VALID,25.9049,VALID,64,VALID,1.54414,
2010-02-11, 00:33:04,VALID,1002.71,VALID,0,VALID,81.9116,VALID,0,VALID,25.8659,VALID,61,VALID,1.17266,
2010-02-11, 00:34:04,VALID,1002.67,VALID,0,VALID,81.9192,VALID,0,VALID,25.8659,VALID,44,VALID,1.11289,
2010-02-11, 00:35:04,VALID,1002.64,VALID,0,VALID,81.4843,VALID,0,VALID,25.8659,VALID,64,VALID,1.73711,
2010-02-11, 00:36:04,VALID,1002.66,VALID,0,VALID,81.3317,VALID,0,VALID,25.8854,VALID,67,VALID,1.64766,
2010-02-11, 00:37:04,VALID,1002.63,VALID,0,VALID,81.614,VALID,0,VALID,25.9049,VALID,70,VALID,1.70313,
2010-02-11, 00:38:04,VALID,1002.63,VALID,0,VALID,81.7666,VALID,0,VALID,25.8834,VALID,59,VALID,1.70117,
2010-02-11, 00:39:04,VALID,1002.59,VALID,0,VALID,81.6674,VALID,0,VALID,25.8854,VALID,63,VALID,0.883203,
2010-02-11, 00:40:04,VALID,1002.58,VALID,0,VALID,81.7361,VALID,0,VALID,25.8659,VALID,70,VALID,0.771875,
2010-02-11, 00:41:04,VALID,1002.55,VALID,0,VALID,81.6522,VALID,0,VALID,25.8659,VALID,64,VALID,0.890234,
2010-02-11, 00:42:04,VALID,1002.51,VALID,0,VALID,81.492,VALID,0,VALID,25.8679,VALID,77,VALID,1.25391,
2010-02-11, 00:43:04,VALID,1002.51,VALID,0,VALID,80.935,VALID,0,VALID,25.8464,VALID,57,VALID,1.69258,
2010-02-11, 00:44:04,VALID,1002.47,VALID,0,VALID,81.2478,VALID,0,VALID,25.9069,VALID,74,VALID,1.3,
2010-02-11, 00:45:04,VALID,1002.44,VALID,0,VALID,81.2631,VALID,0,VALID,25.8854,VALID,70,VALID,0.998828,
2010-02-11, 00:46:04,VALID,1002.45,VALID,0,VALID,81.7056,VALID,0,VALID,25.8854,VALID,63,VALID,0.813281,
2010-02-11, 00:47:04,VALID,1002.44,VALID,0,VALID,81.904,VALID,0,VALID,25.8659,VALID,52,VALID,1.34023,
2010-02-11, 00:48:04,VALID,1002.4,VALID,0,VALID,82.171,VALID,0,VALID,25.8268,VALID,52,VALID,1.10664,
2010-02-11, 00:49:04,VALID,1002.4,VALID,0,VALID,82.2015,VALID,0,VALID,25.8073,VALID,61,VALID,1.29375,
2010-02-11, 00:50:04,VALID,1002.37,VALID,0,VALID,82.3617,VALID,0,VALID,25.7683,VALID,75,VALID,1.12734,
2010-02-11, 00:51:04,VALID,1002.35,VALID,0,VALID,81.3394,VALID,0,VALID,25.7683,VALID,78,VALID,1.5793,
2010-02-11, 00:52:04,VALID,1002.35,VALID,0,VALID,81.6217,VALID,0,VALID,25.8268,VALID,67,VALID,1.29688,
2010-02-11, 00:53:04,VALID,1002.35,VALID,0,VALID,80.8358,VALID,0,VALID,25.8464,VALID,63,VALID,2.02695,
2010-02-11, 00:54:04,VALID,1002.32,VALID,0,VALID,81.2631,VALID,0,VALID,25.8659,VALID,55,VALID,1.21094,
2010-02-11, 00:55:04,VALID,1002.31,VALID,0,VALID,81.7819,VALID,0,VALID,25.8854,VALID,38,VALID,0.796484,
2010-02-11, 00:56:04,VALID,1002.25,VALID,0,VALID,81.5988,VALID,0,VALID,25.8464,VALID,50,VALID,1.56484,
2010-02-11, 00:57:04,VALID,1002.28,VALID,0,VALID,80.9274,VALID,0,VALID,25.8268,VALID,79,VALID,1.84648,
2010-02-11, 00:58:04,VALID,1002.27,VALID,0,VALID,80.996,VALID,0.112286,VALID,25.8464,VALID,64,VALID,2.21328,
2010-02-11, 00:59:04,VALID,1002.27,VALID,0,VALID,80.9274,VALID,0,VALID,25.8893,VALID,55,VALID,1.6957,
2010-02-11, 01:00:04,VALID,1002.27,VALID,0,VALID,80.935,VALID,0,VALID,25.8679,VALID,62,VALID,1.68008,
2010-02-11, 01:01:04,VALID,1002.26,VALID,0,VALID,80.9655,VALID,0,VALID,25.8679,VALID,54,VALID,1.31484,
2010-02-11, 01:02:04,VALID,1002.24,VALID,0,VALID,80.8129,VALID,0,VALID,25.8679,VALID,67,VALID,1.11367,
2010-02-11, 01:03:04,VALID,1002.22,VALID,0,VALID,80.7061,VALID,0,VALID,25.8679,VALID,48,VALID,1.18906,
2010-02-11, 01:04:04,VALID,1002.19,VALID,0,VALID,80.0195,VALID,0,VALID,25.9069,VALID,57,VALID,1.57461,
2010-02-11, 01:05:04,VALID,1002.22,VALID,0,VALID,79.7448,VALID,0,VALID,25.946,VALID,69,VALID,1.76328,
2010-02-11, 01:06:04,VALID,1002.2,VALID,0,VALID,79.4091,VALID,0,VALID,25.985,VALID,60,VALID,2.62578,
2010-02-11, 01:07:04,VALID,1002.17,VALID,0,VALID,79.3709,VALID,0,VALID,26.0241,VALID,71,VALID,2.06133,
2010-02-11, 01:08:04,VALID,1002.18,VALID,0,VALID,79.5693,VALID,0,VALID,26.0436,VALID,79,VALID,1.58555,
2010-02-11, 01:09:04,VALID,1002.18,VALID,0,VALID,79.7982,VALID,0,VALID,26.0045,VALID,66,VALID,1.44805,
2010-02-11, 01:10:04,VALID,1002.16,VALID,0,VALID,80.0271,VALID,0,VALID,25.985,VALID,41,VALID,1.52656,
2010-02-11, 01:11:04,VALID,1002.09,VALID,0,VALID,79.7753,VALID,0,VALID,25.985,VALID,56,VALID,1.86797,
2010-02-11, 01:12:04,VALID,1002.12,VALID,0,VALID,80.2636,VALID,0,VALID,25.985,VALID,69,VALID,1.6625,
2010-02-11, 01:13:04,VALID,1002.09,VALID,0,VALID,80.2941,VALID,0,VALID,25.9655,VALID,54,VALID,1.97109,
2010-02-11, 01:14:04,VALID,1002.11,VALID,0,VALID,80.3475,VALID,0,VALID,25.946,VALID,71,VALID,2.72109,
2010-02-11, 01:15:04,VALID,1002.09,VALID,0,VALID,80.3552,VALID,0,VALID,25.9635,VALID,74,VALID,2.28906,
2010-02-11, 01:16:04,VALID,1002.08,VALID,0,VALID,80.2789,VALID,0,VALID,25.9635,VALID,71,VALID,1.67852,
2010-02-11, 01:17:04,VALID,1002.07,VALID,0,VALID,80.2636,VALID,0,VALID,25.9635,VALID,53,VALID,1.43164,
2010-02-11, 01:18:04,VALID,1002.03,VALID,0,VALID,80.6909,VALID,0,VALID,25.983,VALID,54,VALID,1.04922,
2010-02-11, 01:19:04,VALID,1002.04,VALID,0,VALID,81.1486,VALID,0,VALID,25.944,VALID,62,VALID,1.06836,
2010-02-11, 01:20:04,VALID,1002.04,VALID,0,VALID,80.9808,VALID,0,VALID,25.9049,VALID,46,VALID,1.32852,
2010-02-11, 01:21:04,VALID,1002.02,VALID,0,VALID,80.9045,VALID,0,VALID,25.9069,VALID,62,VALID,1.08828,
2010-02-11, 01:22:04,VALID,1002.03,VALID,0,VALID,80.6298,VALID,0,VALID,25.9049,VALID,60,VALID,2.05195,
2010-02-11, 01:23:04,VALID,1002.03,VALID,0,VALID,80.3018,VALID,0,VALID,25.946,VALID,53,VALID,2.63867,
2010-02-11, 01:24:04,VALID,1002,VALID,0,VALID,80.4772,VALID,0,VALID,25.9635,VALID,41,VALID,2.12578,
2010-02-11, 01:25:04,VALID,1002.03,VALID,0,VALID,80.7138,VALID,0,VALID,25.9635,VALID,45,VALID,1.78359,
2010-02-11, 01:26:04,VALID,1001.99,VALID,0,VALID,80.1492,VALID,0,VALID,25.944,VALID,49,VALID,1.85977,
2010-02-11, 01:27:04,VALID,1002.01,VALID,0,VALID,80.1949,VALID,0,VALID,25.944,VALID,66,VALID,1.95313,
2010-02-11, 01:28:04,VALID,1002.01,VALID,0,VALID,80.5001,VALID,0,VALID,25.944,VALID,58,VALID,1.26797,
2010-02-11, 01:29:04,VALID,1001.98,VALID,0,VALID,80.0957,VALID,0,VALID,25.946,VALID,69,VALID,1.85703,
2010-02-11, 01:30:04,VALID,1001.98,VALID,0,VALID,80.4009,VALID,0,VALID,25.946,VALID,47,VALID,1.6793,
2010-02-11, 01:31:04,VALID,1001.94,VALID,0,VALID,79.9355,VALID,0,VALID,25.946,VALID,87,VALID,2.12539,
2010-02-11, 01:32:04,VALID,1001.99,VALID,0,VALID,80.462,VALID,0,VALID,25.9655,VALID,65,VALID,1.62148,
2010-02-11, 01:33:04,VALID,1001.96,VALID,0,VALID,80.1415,VALID,0,VALID,25.9655,VALID,56,VALID,1.98945,
2010-02-11, 01:34:04,VALID,1001.95,VALID,0,VALID,80.3094,VALID,0,VALID,25.9655,VALID,64,VALID,2.34141,
2010-02-11, 01:35:04,VALID,1001.94,VALID,0,VALID,80.1263,VALID,0,VALID,25.9655,VALID,80,VALID,3.25859,
2010-02-11, 01:36:04,VALID,1001.96,VALID,0,VALID,79.8669,VALID,0,VALID,25.9655,VALID,64,VALID,2.84023,
2010-02-11, 01:37:04,VALID,1001.94,VALID,0,VALID,80.3933,VALID,0,VALID,25.9655,VALID,48,VALID,1.99023,
2010-02-11, 01:38:04,VALID,1001.95,VALID,0,VALID,80.5154,VALID,0,VALID,25.946,VALID,50,VALID,1.96328,
2010-02-11, 01:39:04,VALID,1001.97,VALID,0,VALID,80.8969,VALID,0,VALID,25.9069,VALID,53,VALID,1.98867,
2010-02-11, 01:40:04,VALID,1001.95,VALID,0,VALID,81.0495,VALID,0,VALID,25.8874,VALID,64,VALID,1.72656,
2010-02-11, 01:41:04,VALID,1001.96,VALID,0,VALID,81.2783,VALID,0,VALID,25.8268,VALID,59,VALID,1.7207,
2010-02-11, 01:42:04,VALID,1001.95,VALID,0,VALID,81.4996,VALID,0,VALID,25.7897,VALID,52,VALID,1.7668,
2010-02-11, 01:43:04,VALID,1001.88,VALID,0,VALID,80.2026,VALID,0,VALID,25.7702,VALID,52,VALID,2.80078,
2010-02-11, 01:44:04,VALID,1001.9,VALID,0,VALID,79.6456,VALID,0,VALID,25.8464,VALID,61,VALID,3.21797,
2010-02-11, 01:45:04,VALID,1001.93,VALID,0,VALID,79.7677,VALID,0,VALID,25.8834,VALID,51,VALID,2.57109,
2010-02-11, 01:46:04,VALID,1001.92,VALID,0,VALID,79.5693,VALID,0,VALID,25.9049,VALID,64,VALID,2.67109,
2010-02-11, 01:47:04,VALID,1001.92,VALID,0,VALID,79.6609,VALID,0,VALID,25.9245,VALID,64,VALID,2.5418,
2010-02-11, 01:48:04,VALID,1001.92,VALID,0,VALID,79.7066,VALID,0,VALID,25.8854,VALID,71,VALID,2.87891,
2010-02-11, 01:49:04,VALID,1001.93,VALID,0,VALID,79.8974,VALID,0,VALID,25.8854,VALID,72,VALID,2.85586,
2010-02-11, 01:50:04,VALID,1001.91,VALID,0,VALID,79.9813,VALID,0,VALID,25.8464,VALID,73,VALID,2.90781,
2010-02-11, 01:51:04,VALID,1001.94,VALID,0,VALID,80.317,VALID,0,VALID,25.7878,VALID,73,VALID,2.26367,
2010-02-11, 01:52:04,VALID,1001.9,VALID,0,VALID,80.5764,VALID,0,VALID,25.7487,VALID,69,VALID,1.94062,
2010-02-11, 01:53:04,VALID,1001.9,VALID,0,VALID,80.7366,VALID,0,VALID,25.6902,VALID,68,VALID,1.60625,
2010-02-11, 01:54:04,VALID,1001.91,VALID,0,VALID,80.317,VALID,0,VALID,25.6511,VALID,82,VALID,2.5625,
2010-02-11, 01:55:04,VALID,1001.91,VALID,0,VALID,80.5612,VALID,0,VALID,25.6316,VALID,67,VALID,1.38359,
2010-02-11, 01:56:04,VALID,1001.9,VALID,0,VALID,80.7824,VALID,0,VALID,25.5926,VALID,63,VALID,1.83477,
2010-02-11, 01:57:04,VALID,1001.92,VALID,0,VALID,81.0113,VALID,0,VALID,25.573,VALID,44,VALID,1.61914,
2010-02-11, 01:58:04,VALID,1001.87,VALID,0,VALID,80.2331,VALID,0,VALID,25.5516,VALID,60,VALID,2.90781,
2010-02-11, 01:59:04,VALID,1001.89,VALID,0,VALID,80.462,VALID,0,VALID,25.6297,VALID,74,VALID,2.10938,
2010-02-11, 02:00:04,VALID,1001.86,VALID,0,VALID,80.4238,VALID,0,VALID,25.6316,VALID,67,VALID,2.70977,
2010-02-11, 02:01:04,VALID,1001.88,VALID,0,VALID,80.1644,VALID,0,VALID,25.6316,VALID,54,VALID,2.3332,
2010-02-11, 02:02:04,VALID,1001.85,VALID,0,VALID,79.9966,VALID,0,VALID,25.6297,VALID,51,VALID,2.26836,
2010-02-11, 02:03:04,VALID,1001.87,VALID,0,VALID,80.0881,VALID,0,VALID,25.6707,VALID,81,VALID,1.83516,
2010-02-11, 02:04:04,VALID,1001.85,VALID,0,VALID,80.2102,VALID,0,VALID,25.6707,VALID,53,VALID,1.79961,
2010-02-11, 02:05:04,VALID,1001.87,VALID,0,VALID,80.0195,VALID,0,VALID,25.6902,VALID,67,VALID,2.45156,
2010-02-11, 02:06:04,VALID,1001.85,VALID,0,VALID,80.3094,VALID,0,VALID,25.6882,VALID,63,VALID,1.33086,
2010-02-11, 02:07:04,VALID,1001.86,VALID,0,VALID,80.4849,VALID,0.112286,VALID,25.6707,VALID,67,VALID,2.07148,
2010-02-11, 02:08:04,VALID,1001.83,VALID,0,VALID,81.0266,VALID,0,VALID,25.6121,VALID,55,VALID,1.60195,
2010-02-11, 02:09:04,VALID,1001.77,VALID,0,VALID,81.2326,VALID,0,VALID,25.5535,VALID,39,VALID,1.58789,
2010-02-11, 02:10:04,VALID,1001.82,VALID,0,VALID,81.4462,VALID,0,VALID,25.4949,VALID,66,VALID,1.41562,
2010-02-11, 02:11:04,VALID,1001.8,VALID,0,VALID,81.2173,VALID,0,VALID,25.4345,VALID,88,VALID,1.91094,
2010-02-11, 02:12:04,VALID,1001.76,VALID,0,VALID,81.1792,VALID,0,VALID,25.4364,VALID,61,VALID,1.97773,
2010-02-11, 02:13:04,VALID,1001.74,VALID,0,VALID,81.4843,VALID,0,VALID,25.3973,VALID,66,VALID,1.50625,
2010-02-11, 02:14:04,VALID,1001.7,VALID,0,VALID,81.2783,VALID,0,VALID,25.3797,VALID,67,VALID,1.94023,
2010-02-11, 02:15:04,VALID,1001.69,VALID,0,VALID,81.3012,VALID,0,VALID,25.3583,VALID,72,VALID,1.41211,
2010-02-11, 02:16:04,VALID,1001.69,VALID,0,VALID,81.4615,VALID,0,VALID,25.3407,VALID,74,VALID,1.44531,
2010-02-11, 02:17:04,VALID,1001.68,VALID,0,VALID,81.553,VALID,0,VALID,25.3017,VALID,66,VALID,1.51563,
2010-02-11, 02:18:04,VALID,1001.67,VALID,0,VALID,81.7514,VALID,0,VALID,25.2821,VALID,72,VALID,1.57617,
2010-02-11, 02:19:04,VALID,1001.65,VALID,0,VALID,81.6598,VALID,0,VALID,25.2431,VALID,69,VALID,1.54609,
2010-02-11, 02:20:04,VALID,1001.65,VALID,0,VALID,81.7438,VALID,0,VALID,25.2236,VALID,55,VALID,1.48125,
2010-02-11, 02:21:04,VALID,1001.63,VALID,0,VALID,81.286,VALID,0,VALID,25.2431,VALID,73,VALID,1.68633,
2010-02-11, 02:22:04,VALID,1001.59,VALID,0,VALID,81.08,VALID,0,VALID,25.2607,VALID,63,VALID,1.82266,
2010-02-11, 02:23:04,VALID,1001.62,VALID,0,VALID,81.0266,VALID,0,VALID,25.3017,VALID,73,VALID,1.34844,
2010-02-11, 02:24:04,VALID,1001.62,VALID,0,VALID,81.08,VALID,0,VALID,25.2821,VALID,69,VALID,1.60781,
2010-02-11, 02:25:04,VALID,1001.62,VALID,0,VALID,81.2631,VALID,0,VALID,25.2217,VALID,68,VALID,1.46406,
2010-02-11, 02:26:04,VALID,1001.64,VALID,0,VALID,81.4157,VALID,0,VALID,25.2236,VALID,72,VALID,1.46836,
2010-02-11, 02:27:04,VALID,1001.64,VALID,0,VALID,81.5378,VALID,0,VALID,25.1631,VALID,76,VALID,1.49219,
2010-02-11, 02:28:04,VALID,1001.63,VALID,0,VALID,81.6293,VALID,0,VALID,25.165,VALID,60,VALID,1.81914,
2010-02-11, 02:29:04,VALID,1001.68,VALID,0,VALID,81.553,VALID,0,VALID,25.1845,VALID,68,VALID,1.98242,
2010-02-11, 02:30:04,VALID,1001.64,VALID,0,VALID,81.6903,VALID,0,VALID,25.1436,VALID,69,VALID,1.63477,
2010-02-11, 02:31:04,VALID,1001.62,VALID,0,VALID,81.8887,VALID,0,VALID,25.165,VALID,75,VALID,1.52695,
2010-02-11, 02:32:04,VALID,1001.63,VALID,0,VALID,82.0489,VALID,0,VALID,25.1045,VALID,73,VALID,1.35234,
2010-02-11, 02:33:04,VALID,1001.62,VALID,0,VALID,82.0718,VALID,0,VALID,25.0655,VALID,74,VALID,1.28359,
2010-02-11, 02:34:04,VALID,1001.57,VALID,0,VALID,82.232,VALID,0,VALID,25.0479,VALID,76,VALID,1.21602,
2010-02-11, 02:35:04,VALID,1001.57,VALID,0,VALID,82.2778,VALID,0,VALID,24.9874,VALID,67,VALID,1.18203,
2010-02-11, 02:36:04,VALID,1001.54,VALID,0,VALID,82.3389,VALID,0,VALID,24.9289,VALID,75,VALID,0.95625,
2010-02-11, 02:37:04,VALID,1001.55,VALID,0,VALID,82.6135,VALID,0,VALID,24.9112,VALID,75,VALID,1.15781,
2010-02-11, 02:38:04,VALID,1001.55,VALID,0,VALID,82.9111,VALID,0,VALID,24.8917,VALID,66,VALID,1.16836,
2010-02-11, 02:39:04,VALID,1001.57,VALID,0,VALID,82.5601,VALID,0,VALID,24.8722,VALID,78,VALID,1.53477,
2010-02-11, 02:40:04,VALID,1001.57,VALID,0,VALID,82.6593,VALID,0,VALID,24.8722,VALID,77,VALID,0.755078,
2010-02-11, 02:41:04,VALID,1001.54,VALID,0,VALID,82.4762,VALID,0,VALID,24.8917,VALID,90,VALID,1.45977,
2010-02-11, 02:42:04,VALID,1001.53,VALID,0,VALID,81.9955,VALID,0,VALID,24.9698,VALID,71,VALID,1.9418,
2010-02-11, 02:43:04,VALID,1001.52,VALID,0,VALID,81.5759,VALID,0,VALID,25.0869,VALID,95,VALID,1.49336,
2010-02-11, 02:44:04,VALID,1001.54,VALID,0,VALID,81.2936,VALID,0.112286,VALID,25.1045,VALID,96,VALID,0.83125,
2010-02-11, 02:45:04,VALID,1001.52,VALID,0,VALID,81.6446,VALID,0,VALID,25.0655,VALID,85,VALID,0.971875,
2010-02-11, 02:46:04,VALID,1001.56,VALID,0,VALID,81.8506,VALID,0.112286,VALID,25.0265,VALID,88,VALID,1.03086,
2010-02-11, 02:47:04,VALID,1001.55,VALID,0,VALID,82.2015,VALID,0.112286,VALID,24.9465,VALID,97,VALID,0.914063,
2010-02-11, 02:48:04,VALID,1001.55,VALID,0,VALID,82.5601,VALID,0,VALID,24.8898,VALID,87,VALID,1.01328,
2010-02-11, 02:49:04,VALID,1001.55,VALID,0,VALID,82.6746,VALID,0,VALID,24.8313,VALID,84,VALID,1.06484,
2010-02-11, 02:50:04,VALID,1001.55,VALID,0,VALID,82.4457,VALID,0,VALID,24.8527,VALID,86,VALID,1.39766,
2010-02-11, 02:51:04,VALID,1001.54,VALID,0,VALID,81.8124,VALID,0,VALID,24.9308,VALID,76,VALID,1.25625,
2010-02-11, 02:52:04,VALID,1001.53,VALID,0,VALID,81.7209,VALID,0,VALID,24.9484,VALID,87,VALID,1.14766,
2010-02-11, 02:53:04,VALID,1001.51,VALID,0,VALID,81.7819,VALID,0,VALID,24.9112,VALID,78,VALID,1.06875,
2010-02-11, 02:54:04,VALID,1001.52,VALID,0,VALID,82.0032,VALID,0,VALID,24.8703,VALID,71,VALID,1.34219,
2010-02-11, 02:55:04,VALID,1001.48,VALID,0,VALID,81.9955,VALID,0,VALID,24.8332,VALID,83,VALID,1.09414,
2010-02-11, 02:56:04,VALID,1001.5,VALID,0,VALID,82.2931,VALID,0,VALID,24.7746,VALID,83,VALID,1.06523,
2010-02-11, 02:57:04,VALID,1001.51,VALID,0,VALID,82.4991,VALID,0,VALID,24.716,VALID,83,VALID,0.911719,
2010-02-11, 02:58:04,VALID,1001.52,VALID,0,VALID,82.8272,VALID,0,VALID,24.6361,VALID,83,VALID,1.16953,
2010-02-11, 02:59:04,VALID,1001.5,VALID,0,VALID,82.7585,VALID,0,VALID,24.638,VALID,83,VALID,0.863281,
2010-02-11, 03:00:04,VALID,1001.5,VALID,0,VALID,82.8729,VALID,0,VALID,24.558,VALID,83,VALID,0.690625,
2010-02-11, 03:01:04,VALID,1001.5,VALID,0,VALID,82.995,VALID,0,VALID,24.519,VALID,104,VALID,0.961328,
2010-02-11, 03:02:04,VALID,1001.49,VALID,0,VALID,83.056,VALID,0,VALID,24.4995,VALID,82,VALID,1.15977,
2010-02-11, 03:03:04,VALID,1001.49,VALID,0,VALID,83.3689,VALID,0,VALID,24.5599,VALID,86,VALID,1.19805,
2010-02-11, 03:04:04,VALID,1001.47,VALID,0,VALID,82.1023,VALID,0,VALID,24.5989,VALID,88,VALID,1.88672,
2010-02-11, 03:05:04,VALID,1001.46,VALID,0,VALID,81.7972,VALID,0,VALID,24.677,VALID,89,VALID,1.82656,
2010-02-11, 03:06:04,VALID,1001.48,VALID,0,VALID,81.3928,VALID,0,VALID,24.716,VALID,81,VALID,1.31016,
2010-02-11, 03:07:04,VALID,1001.47,VALID,0,VALID,81.4309,VALID,0,VALID,24.7142,VALID,88,VALID,1.08711,
2010-02-11, 03:08:04,VALID,1001.47,VALID,0,VALID,81.6217,VALID,0,VALID,24.716,VALID,88,VALID,0.917969,
2010-02-11, 03:09:04,VALID,1001.47,VALID,0,VALID,81.8048,VALID,0,VALID,24.6946,VALID,88,VALID,1.06797,
2010-02-11, 03:10:04,VALID,1001.49,VALID,0,VALID,81.5912,VALID,0,VALID,24.677,VALID,84,VALID,1.15,
2010-02-11, 03:11:04,VALID,1001.47,VALID,0,VALID,81.8582,VALID,0,VALID,24.6184,VALID,85,VALID,1.21953,
2010-02-11, 03:12:04,VALID,1001.45,VALID,0,VALID,81.7438,VALID,0,VALID,24.558,VALID,87,VALID,1.14023,
2010-02-11, 03:13:04,VALID,1001.43,VALID,0,VALID,81.9879,VALID,0,VALID,24.5404,VALID,92,VALID,1.3875,
2010-02-11, 03:14:04,VALID,1001.42,VALID,0,VALID,81.492,VALID,0,VALID,24.6203,VALID,94,VALID,1.31641,
2010-02-11, 03:15:04,VALID,1001.43,VALID,0,VALID,81.6751,VALID,0,VALID,24.6203,VALID,94,VALID,1.46484,
2010-02-11, 03:16:04,VALID,1001.4,VALID,0,VALID,81.492,VALID,0,VALID,24.6184,VALID,91,VALID,1.5,
2010-02-11, 03:17:04,VALID,1001.42,VALID,0,VALID,81.5149,VALID,0,VALID,24.638,VALID,92,VALID,1.40039,
2010-02-11, 03:18:04,VALID,1001.41,VALID,0,VALID,81.4386,VALID,0,VALID,24.638,VALID,91,VALID,1.28711,
2010-02-11, 03:19:04,VALID,1001.41,VALID,0,VALID,81.6598,VALID,0,VALID,24.558,VALID,85,VALID,1.31953,
2010-02-11, 03:20:04,VALID,1001.4,VALID,0,VALID,81.6903,VALID,0,VALID,24.5013,VALID,89,VALID,1.52734,
2010-02-11, 03:21:04,VALID,1001.38,VALID,0,VALID,81.7743,VALID,0,VALID,24.4818,VALID,86,VALID,1.37031,
2010-02-11, 03:22:04,VALID,1001.38,VALID,0,VALID,81.8506,VALID,0,VALID,24.4818,VALID,92,VALID,1.50391,
2010-02-11, 03:23:04,VALID,1001.38,VALID,0,VALID,81.7895,VALID,0,VALID,24.4818,VALID,93,VALID,1.22734,
2010-02-11, 03:24:04,VALID,1001.38,VALID,0,VALID,81.8048,VALID,0,VALID,24.4623,VALID,87,VALID,1.32422,
2010-02-11, 03:25:04,VALID,1001.42,VALID,0,VALID,81.347,VALID,0,VALID,24.5209,VALID,98,VALID,1.44648,
2010-02-11, 03:26:04,VALID,1001.45,VALID,0,VALID,81.1715,VALID,0,VALID,24.5599,VALID,100,VALID,1.27227,
2010-02-11, 03:27:04,VALID,1001.43,VALID,0,VALID,81.2707,VALID,0,VALID,24.5599,VALID,98,VALID,1.52695,
2010-02-11, 03:28:04,VALID,1001.46,VALID,0,VALID,81.4691,VALID,0,VALID,24.5404,VALID,105,VALID,1.34766,
2010-02-11, 03:29:04,VALID,1001.45,VALID,0,VALID,81.7438,VALID,0,VALID,24.4818,VALID,103,VALID,1.11602,
2010-02-11, 03:30:04,VALID,1001.46,VALID,0,VALID,81.7056,VALID,0,VALID,24.4623,VALID,105,VALID,1.50859,
2010-02-11, 03:31:04,VALID,1001.47,VALID,0,VALID,81.7438,VALID,0,VALID,24.4428,VALID,106,VALID,1.29648,
2010-02-11, 03:32:04,VALID,1001.48,VALID,0,VALID,81.8506,VALID,0,VALID,24.4233,VALID,108,VALID,1.24492,
2010-02-11, 03:33:04,VALID,1001.44,VALID,0,VALID,82.1023,VALID,0,VALID,24.3647,VALID,113,VALID,1.03984,
2010-02-11, 03:34:04,VALID,1001.44,VALID,0,VALID,81.9955,VALID,0,VALID,24.3452,VALID,115,VALID,0.926562,
2010-02-11, 03:35:04,VALID,1001.46,VALID,0,VALID,82.1405,VALID,0,VALID,24.3257,VALID,115,VALID,0.784375,
2010-02-11, 03:36:04,VALID,1001.47,VALID,0,VALID,82.5372,VALID,0,VALID,24.2866,VALID,121,VALID,1.15977,
2010-02-11, 03:37:04,VALID,1001.47,VALID,0,VALID,82.1939,VALID,0,VALID,24.3062,VALID,114,VALID,0.971484,
2010-02-11, 03:38:04,VALID,1001.47,VALID,0,VALID,82.3694,VALID,0,VALID,24.3062,VALID,124,VALID,1.19844,
2010-02-11, 03:39:04,VALID,1001.48,VALID,0,VALID,82.3617,VALID,0,VALID,24.2671,VALID,123,VALID,1.12969,
2010-02-11, 03:40:04,VALID,1001.48,VALID,0,VALID,82.377,VALID,0,VALID,24.2281,VALID,121,VALID,0.962109,
2010-02-11, 03:41:04,VALID,1001.49,VALID,0,VALID,82.8043,VALID,0,VALID,24.1891,VALID,120,VALID,0.894922,
2010-02-11, 03:42:04,VALID,1001.45,VALID,0,VALID,83.0408,VALID,0,VALID,24.1891,VALID,121,VALID,0.980469,
2010-02-11, 03:43:04,VALID,1001.5,VALID,0,VALID,83.0866,VALID,0,VALID,24.2086,VALID,119,VALID,1.34375,
2010-02-11, 03:44:04,VALID,1001.48,VALID,0,VALID,82.8119,VALID,0,VALID,24.2086,VALID,120,VALID,1.41055,
2010-02-11, 03:45:04,VALID,1001.48,VALID,0,VALID,83.407,VALID,0,VALID,24.1891,VALID,128,VALID,1.30625,
2010-02-11, 03:46:04,VALID,1001.53,VALID,0,VALID,83.3155,VALID,0,VALID,24.1891,VALID,138,VALID,1.2957,
2010-02-11, 03:47:04,VALID,1001.55,VALID,0,VALID,83.2239,VALID,0,VALID,24.1696,VALID,133,VALID,1.1582,
2010-02-11, 03:48:04,VALID,1001.57,VALID,0,VALID,83.5138,VALID,0,VALID,24.1287,VALID,133,VALID,0.992969,